AAL453 KLAX-KLAS

Flight info

Callsign AAL453
Flight time N/A
Altitude 25000
Route SKWRL2 VALEY SLAPP VVERA SSETH DAG CRESO5
Aircraft B738/M-SDE2E3FGHIRWXYZ/L

Departure

Time 2026-04-20 18:11
Airport Los Angeles International Airport (KLAX)

Arrival

Time N/A
Airport Harry Reid International Airport (KLAS)
Time Latitude Longitude Altitude Speed Heading
2026-04-20 17:21 33.94577 -118.40472 135 ft 0 kts 82°
2026-04-20 18:03 33.94577 -118.40481 134 ft 2 kts 102°
2026-04-20 18:03 33.94580 -118.40498 134 ft 2 kts 99°
2026-04-20 18:03 33.94582 -118.40516 134 ft 2 kts 99°
2026-04-20 18:04 33.94584 -118.40533 134 ft 2 kts 99°
2026-04-20 18:04 33.94587 -118.40548 134 ft 1 kts 79°
2026-04-20 18:04 33.94582 -118.40556 134 ft 1 kts 23°
2026-04-20 18:04 33.94571 -118.40556 134 ft 2 kts 339°
2026-04-20 18:05 33.94578 -118.40555 134 ft 2 kts 353°
2026-04-20 18:05 33.94582 -118.40556 134 ft 0 kts 353°
2026-04-20 18:08 33.94606 -118.40559 134 ft 9 kts 353°
2026-04-20 18:08 33.94723 -118.40578 134 ft 21 kts 352°
2026-04-20 18:09 33.94854 -118.40570 134 ft 16 kts 55°
2026-04-20 18:09 33.94878 -118.40461 134 ft 11 kts 82°
2026-04-20 18:09 33.94890 -118.40352 134 ft 14 kts 84°
2026-04-20 18:09 33.94902 -118.40224 134 ft 16 kts 84°
2026-04-20 18:10 33.94916 -118.40075 134 ft 18 kts 83°
2026-04-20 18:10 33.94929 -118.39971 134 ft 0 kts 70°
2026-04-20 18:10 33.94929 -118.39967 134 ft 6 kts 70°
2026-04-20 18:10 33.94989 -118.39931 134 ft 10 kts 351°
2026-04-20 18:11 33.95028 -118.40019 134 ft 29 kts 272°
2026-04-20 18:11 33.94946 -118.40765 135 ft 143 kts 263°
2026-04-20 18:11 33.94835 -118.42242 577 ft 192 kts 265°
2026-04-20 18:11 33.94776 -118.43800 1778 ft 191 kts 268°
2026-04-20 18:12 33.94775 -118.45383 2447 ft 218 kts 270°
2026-04-20 18:12 33.94857 -118.47377 1786 ft 245 kts 274°
2026-04-20 18:12 33.95051 -118.49381 1885 ft 214 kts 278°
2026-04-20 18:12 33.95309 -118.51166 1423 ft 222 kts 281°
2026-04-20 18:13 33.95380 -118.52979 1321 ft 209 kts 253°
2026-04-20 18:13 33.94690 -118.54494 1503 ft 209 kts 236°
2026-04-20 18:13 33.94044 -118.56080 1663 ft 211 kts 252°
2026-04-20 18:13 33.93753 -118.57806 1951 ft 208 kts 262°
2026-04-20 18:14 33.93575 -118.59569 2661 ft 228 kts 263°
2026-04-20 18:14 33.93368 -118.61588 3344 ft 252 kts 257°
2026-04-20 18:14 33.92606 -118.63450 3999 ft 257 kts 226°
2026-04-20 18:14 33.91079 -118.64497 4675 ft 260 kts 191°
2026-04-20 18:15 33.89265 -118.64440 5374 ft 260 kts 171°
2026-04-20 18:15 33.87506 -118.64113 6040 ft 260 kts 174°
2026-04-20 18:15 33.85712 -118.63909 6716 ft 260 kts 176°
2026-04-20 18:15 33.83933 -118.63578 7383 ft 263 kts 161°
2026-04-20 18:16 33.82358 -118.62439 8072 ft 267 kts 146°
2026-04-20 18:16 33.80868 -118.61149 8741 ft 270 kts 148°
2026-04-20 18:16 33.79314 -118.59876 9419 ft 272 kts 149°
2026-04-20 18:16 33.77766 -118.58611 10089 ft 273 kts 149°
2026-04-20 18:17 33.76188 -118.57324 10770 ft 273 kts 149°
2026-04-20 18:17 33.74646 -118.56069 11435 ft 272 kts 149°
2026-04-20 18:17 33.73073 -118.54793 11927 ft 279 kts 149°
2026-04-20 18:17 33.71423 -118.53455 12204 ft 292 kts 148°
2026-04-20 18:18 33.69877 -118.51799 12476 ft 309 kts 131°
2026-04-20 18:18 33.68866 -118.49472 12762 ft 324 kts 113°
2026-04-20 18:18 33.68133 -118.46839 13041 ft 334 kts 112°
2026-04-20 18:18 33.67368 -118.44179 13315 ft 342 kts 113°
2026-04-20 18:19 33.66562 -118.41448 13592 ft 349 kts 113°
2026-04-20 18:19 33.65747 -118.38685 13865 ft 353 kts 113°
2026-04-20 18:19 33.64930 -118.35907 14137 ft 356 kts 112°
2026-04-20 18:19 33.64444 -118.32998 14457 ft 362 kts 96°
2026-04-20 18:20 33.64426 -118.29948 14891 ft 364 kts 92°
2026-04-20 18:20 33.64449 -118.26952 15232 ft 366 kts 93°
2026-04-20 18:20 33.64450 -118.23878 15584 ft 368 kts 93°
2026-04-20 18:20 33.64556 -118.20805 15928 ft 372 kts 83°
2026-04-20 18:21 33.65390 -118.17880 16270 ft 379 kts 61°
2026-04-20 18:21 33.67133 -118.15499 16631 ft 381 kts 39°
2026-04-20 18:21 33.69282 -118.13612 16996 ft 382 kts 36°
2026-04-20 18:21 33.71408 -118.11746 17341 ft 383 kts 37°
2026-04-20 18:22 33.73534 -118.09838 17690 ft 383 kts 37°
2026-04-20 18:22 33.75679 -118.07916 18041 ft 384 kts 37°
2026-04-20 18:22 33.77811 -118.06004 18387 ft 384 kts 37°
2026-04-20 18:22 33.79802 -118.04217 18712 ft 384 kts 37°
2026-04-20 18:23 33.81803 -118.02419 19039 ft 384 kts 37°
2026-04-20 18:23 33.83950 -118.00490 19390 ft 384 kts 37°
2026-04-20 18:23 33.86056 -117.98595 19735 ft 384 kts 36°
2026-04-20 18:23 33.87691 -117.97124 20002 ft 384 kts 36°
2026-04-20 18:24 33.89794 -117.95231 20347 ft 383 kts 36°
2026-04-20 18:24 33.91919 -117.93309 20697 ft 383 kts 37°
2026-04-20 18:24 33.94026 -117.91385 21046 ft 382 kts 37°
2026-04-20 18:24 33.96135 -117.89456 21396 ft 381 kts 37°
2026-04-20 18:25 33.98264 -117.87509 21749 ft 380 kts 36°
2026-04-20 18:25 34.00349 -117.85603 22097 ft 379 kts 36°
2026-04-20 18:25 34.02443 -117.83687 22447 ft 378 kts 36°
2026-04-20 18:25 34.04542 -117.81764 22799 ft 377 kts 36°
2026-04-20 18:26 34.06599 -117.79875 23145 ft 376 kts 37°
2026-04-20 18:26 34.08582 -117.77817 23496 ft 374 kts 44°
2026-04-20 18:26 34.10330 -117.75520 23846 ft 373 kts 50°
2026-04-20 18:26 34.11972 -117.73116 24197 ft 371 kts 50°
2026-04-20 18:27 34.13608 -117.70723 24548 ft 369 kts 50°
2026-04-20 18:27 34.15241 -117.68336 24899 ft 366 kts 50°
2026-04-20 18:27 34.16857 -117.65958 25071 ft 370 kts 51°
2026-04-20 18:27 34.18505 -117.63522 25068 ft 379 kts 51°
2026-04-20 18:28 34.20168 -117.61060 25067 ft 386 kts 51°
2026-04-20 18:28 34.21887 -117.58508 25064 ft 393 kts 51°
2026-04-20 18:28 34.23625 -117.55926 25062 ft 400 kts 51°
2026-04-20 18:28 34.25391 -117.53297 25061 ft 406 kts 51°
2026-04-20 18:29 34.27204 -117.50597 25030 ft 412 kts 51°
2026-04-20 18:29 34.29011 -117.47903 25014 ft 418 kts 51°
2026-04-20 18:29 34.30841 -117.45172 25012 ft 422 kts 51°
2026-04-20 18:29 34.32716 -117.42371 25012 ft 426 kts 51°
2026-04-20 18:30 34.34577 -117.39589 25012 ft 430 kts 51°
2026-04-20 18:30 34.36471 -117.36755 25012 ft 433 kts 51°
2026-04-20 18:30 34.38369 -117.33913 25011 ft 436 kts 51°
2026-04-20 18:30 34.40288 -117.31039 25012 ft 438 kts 51°
2026-04-20 18:31 34.42204 -117.28169 25012 ft 441 kts 51°
2026-04-20 18:31 34.44132 -117.25276 25012 ft 442 kts 51°
2026-04-20 18:31 34.46035 -117.22416 25009 ft 440 kts 51°
2026-04-20 18:31 34.47962 -117.19521 25008 ft 439 kts 51°
2026-04-20 18:32 34.49865 -117.16660 25009 ft 439 kts 51°
2026-04-20 18:32 34.50362 -117.15912 25009 ft 439 kts 51°
2026-04-20 18:32 34.52286 -117.13017 25009 ft 439 kts 51°
2026-04-20 18:32 34.54198 -117.10137 25009 ft 439 kts 51°
2026-04-20 18:33 34.56128 -117.07288 25009 ft 439 kts 50°
2026-04-20 18:33 34.58102 -117.04431 25009 ft 439 kts 50°
2026-04-20 18:33 34.60059 -117.01594 25009 ft 439 kts 50°
2026-04-20 18:33 34.61997 -116.98774 25009 ft 439 kts 50°
2026-04-20 18:34 34.63945 -116.95937 25009 ft 439 kts 50°
2026-04-20 18:34 34.65901 -116.93084 25009 ft 439 kts 50°
2026-04-20 18:34 34.67862 -116.90221 25009 ft 439 kts 50°
2026-04-20 18:34 34.69801 -116.87388 25009 ft 439 kts 50°
2026-04-20 18:35 34.71759 -116.84523 25009 ft 439 kts 50°
2026-04-20 18:35 34.73695 -116.81688 25009 ft 439 kts 50°
2026-04-20 18:35 34.75663 -116.78805 25010 ft 439 kts 50°
2026-04-20 18:35 34.77620 -116.75934 25016 ft 441 kts 50°
2026-04-20 18:36 34.79559 -116.73088 25011 ft 440 kts 50°
2026-04-20 18:36 34.81514 -116.70215 24991 ft 437 kts 50°
2026-04-20 18:36 34.83452 -116.67390 24990 ft 437 kts 48°
2026-04-20 18:36 34.85538 -116.64710 24989 ft 437 kts 42°
2026-04-20 18:37 34.87836 -116.62313 24993 ft 437 kts 38°
2026-04-20 18:37 34.90222 -116.59979 24992 ft 437 kts 37°
2026-04-20 18:37 34.92575 -116.57671 24991 ft 437 kts 37°
2026-04-20 18:37 34.94918 -116.55370 24991 ft 437 kts 37°
2026-04-20 18:38 34.97295 -116.53042 24991 ft 437 kts 37°
2026-04-20 18:38 34.99643 -116.50747 24991 ft 437 kts 37°
2026-04-20 18:38 35.02012 -116.48434 24991 ft 437 kts 37°
2026-04-20 18:38 35.04370 -116.46132 24991 ft 437 kts 37°
2026-04-20 18:39 35.06747 -116.43813 24991 ft 437 kts 37°
2026-04-20 18:39 35.09057 -116.41421 24989 ft 437 kts 42°
2026-04-20 18:39 35.11143 -116.38741 24991 ft 437 kts 48°
2026-04-20 18:39 35.13102 -116.35922 24993 ft 438 kts 49°
2026-04-20 18:40 35.15081 -116.33050 24991 ft 438 kts 49°
2026-04-20 18:40 35.17015 -116.30249 24991 ft 438 kts 50°
2026-04-20 18:40 35.18989 -116.27374 24991 ft 438 kts 50°
2026-04-20 18:40 35.20927 -116.24535 24991 ft 438 kts 50°
2026-04-20 18:41 35.22880 -116.21664 24983 ft 435 kts 50°
2026-04-20 18:41 35.24801 -116.18832 24980 ft 434 kts 50°
2026-04-20 18:41 35.26732 -116.15982 24982 ft 436 kts 50°
2026-04-20 18:41 35.28655 -116.13138 24985 ft 437 kts 50°
2026-04-20 18:42 35.30600 -116.10255 24590 ft 442 kts 50°
2026-04-20 18:42 35.32531 -116.07389 23447 ft 448 kts 50°
2026-04-20 18:42 35.34525 -116.04427 21818 ft 451 kts 50°
2026-04-20 18:42 35.36463 -116.01544 20350 ft 440 kts 51°
2026-04-20 18:43 35.38350 -115.98734 18984 ft 428 kts 51°
2026-04-20 18:43 35.40196 -115.95980 17609 ft 418 kts 51°
2026-04-20 18:43 35.42009 -115.93272 16226 ft 408 kts 52°
2026-04-20 18:43 35.43767 -115.90643 14853 ft 399 kts 52°
2026-04-20 18:44 35.45499 -115.88055 13469 ft 390 kts 52°
2026-04-20 18:44 35.47170 -115.85554 12101 ft 382 kts 53°
2026-04-20 18:44 35.48816 -115.83090 11074 ft 365 kts 53°
2026-04-20 18:44 35.50370 -115.80765 10612 ft 336 kts 53°
2026-04-20 18:45 35.51796 -115.78629 10144 ft 316 kts 54°
2026-04-20 18:45 35.53136 -115.76615 9622 ft 302 kts 54°
2026-04-20 18:45 35.54456 -115.74627 9094 ft 298 kts 54°
2026-04-20 18:45 35.55749 -115.72679 8572 ft 294 kts 54°
2026-04-20 18:46 35.57039 -115.70741 8203 ft 288 kts 54°
2026-04-20 18:46 35.58305 -115.68838 8344 ft 292 kts 54°
2026-04-20 18:46 35.59588 -115.66904 8352 ft 294 kts 54°
2026-04-20 18:46 35.60871 -115.64974 8348 ft 294 kts 53°
2026-04-20 18:47 35.62177 -115.63009 8347 ft 294 kts 53°
2026-04-20 18:47 35.63468 -115.61063 8348 ft 294 kts 53°
2026-04-20 18:47 35.64757 -115.59119 8348 ft 294 kts 53°
2026-04-20 18:47 35.66045 -115.57178 8348 ft 294 kts 53°
2026-04-20 18:48 35.67331 -115.55235 8349 ft 294 kts 53°
2026-04-20 18:48 35.68619 -115.53292 8348 ft 294 kts 53°
2026-04-20 18:48 35.69918 -115.51328 8349 ft 294 kts 53°
2026-04-20 18:48 35.71201 -115.49390 8348 ft 294 kts 53°
2026-04-20 18:49 35.72499 -115.47425 8349 ft 294 kts 53°
2026-04-20 18:49 35.73791 -115.45470 8349 ft 294 kts 53°
2026-04-20 18:49 35.75069 -115.43536 8348 ft 294 kts 53°
2026-04-20 18:49 35.76360 -115.41577 8280 ft 295 kts 53°
2026-04-20 18:50 35.77660 -115.39609 8057 ft 293 kts 53°
2026-04-20 18:50 35.78928 -115.37688 7846 ft 291 kts 53°
2026-04-20 18:50 35.80209 -115.35744 7632 ft 290 kts 53°
2026-04-20 18:50 35.81471 -115.33829 7421 ft 289 kts 53°
2026-04-20 18:51 35.82742 -115.31898 7207 ft 288 kts 53°
2026-04-20 18:51 35.84000 -115.29988 6995 ft 287 kts 53°
2026-04-20 18:51 35.85244 -115.28096 6785 ft 286 kts 53°
2026-04-20 18:51 35.86497 -115.26190 6572 ft 286 kts 53°
2026-04-20 18:52 35.87752 -115.24280 6358 ft 286 kts 53°
2026-04-20 18:52 35.89000 -115.22381 6148 ft 288 kts 54°
2026-04-20 18:52 35.90263 -115.20451 5976 ft 286 kts 54°
2026-04-20 18:52 35.91498 -115.18565 5959 ft 285 kts 54°
2026-04-20 18:53 35.92755 -115.16642 5844 ft 287 kts 54°
2026-04-20 18:53 35.94000 -115.14741 5680 ft 286 kts 54°
2026-04-20 18:53 35.95255 -115.12824 5516 ft 285 kts 54°
2026-04-20 18:53 35.96499 -115.10922 5353 ft 285 kts 54°
2026-04-20 18:54 35.97726 -115.09045 5193 ft 284 kts 54°
2026-04-20 18:54 35.98974 -115.07136 5030 ft 284 kts 54°
2026-04-20 18:54 36.00217 -115.05233 4960 ft 283 kts 54°
2026-04-20 18:54 36.01437 -115.03363 4962 ft 283 kts 54°
2026-04-20 18:55 36.02684 -115.01451 4962 ft 284 kts 54°
2026-04-20 18:55 36.03931 -114.99538 4851 ft 286 kts 54°
2026-04-20 18:55 36.05160 -114.97653 4648 ft 284 kts 54°
2026-04-20 18:55 36.06540 -114.95903 4310 ft 288 kts 36°
2026-04-20 18:56 36.08405 -114.95096 3906 ft 289 kts
2026-04-20 18:56 36.10332 -114.95629 3584 ft 283 kts 327°
2026-04-20 18:56 36.11675 -114.97307 3385 ft 280 kts 295°
2026-04-20 18:56 36.12089 -114.99593 3076 ft 267 kts 260°
2026-04-20 18:57 36.11447 -115.01619 2778 ft 254 kts 226°
2026-04-20 18:57 36.10028 -115.02787 2486 ft 246 kts 197°
2026-04-20 18:57 36.08380 -115.03361 2414 ft 242 kts 199°
2026-04-20 18:57 36.07049 -115.04557 2449 ft 236 kts 231°
2026-04-20 18:58 36.06601 -115.06395 2462 ft 225 kts 270°
2026-04-20 18:58 36.06966 -115.08247 2469 ft 216 kts 284°
2026-04-20 18:58 36.07404 -115.09982 2333 ft 206 kts 269°
2026-04-20 18:58 36.07405 -115.11646 2280 ft 179 kts 263°
2026-04-20 18:59 36.07382 -115.13090 2194 ft 156 kts 264°
2026-04-20 18:59 36.07335 -115.14338 2190 ft 133 kts 263°
2026-04-20 18:59 36.07113 -115.15320 2190 ft 105 kts 231°